Temp
-15 -15 -15 -15 -15 -15 -15 -15 -15 -15 -15 -15 -15 -15 -15 -15 -15 -15 -15 -15 -15 -15 -15 -15 -15 -15 -15 -15 -15 -15 -15 -15 -15 -15 -16 -16 -16 -16 -16 -16 -16 -16 -16 -16 -16 -16 -16 -16 -16 -16 -16 -16 -16 -16 -16 -16 -16 -16 -16 -16 -16 -16 -16 -16 -16 -16 -16 -16 -16 -16 -16 -16 -16 -17
-15 -15 -15 -15 -15 -15 -15 -15 -15 -15 -15 -15 -15 -15 -15 -15 -15 -15 -15 -15 -15 -15 -15 -15 -15 -15 -15 -15 -15 -15 -15 -15 -16 -16 -16 -16 -16 -16 -16 -16 -16 -16 -16 -16 -16 -16 -16 -16 -16 -16 -16 -16 -16 -16 -16 -16 -16 -16 -16 -16 -16 -16 -16 -16 -16 -16 -16 -16 -16 -16 -16 -16 -16 -16
-15 -15 -15 -15 -15 -15 -15 -15 -15 -15 -15 -15 -15 -15 -15 -15 -15 -15 -15 -15 -15 -15 -15 -15 -15 -15 -16 -16 -16 -16 -16 -16 -16 -16 -16 -16 -16 -16 -17 -17 -17 -17 -17 -17 -16 -16 -16 -17 -17 -17 -17 -17 -17 -17 -17 -17 -17 -17 -17 -17 -17 -16 -16 -16 -16 -16 -16 -16 -16 -16 -17 -17 -17 -17
-15 -15 -15 -15 -15 -15 -15 -15 -15 -15 -16 -16 -15 -15 -15 -15 -15 -15 -15 -15 -15 -15 -15 -15 -15 -16 -16 -16 -16 -16 -16 -16 -16 -16 -16 -17 -17 -17 -17 -17 -17 -17 -17 -17 -17 -17 -17 -17 -17 -17 -17 -17 -17 -17 -17 -17 -17 -17 -17 -17 -17 -17 -17 -17 -17 -17 -17 -17 -17 -17 -17 -17 -17 -17
-15 -15 -15 -15 -15 -15 -15 -15 -15 -16 -16 -16 -16 -16 -15 -15 -15 -15 -15 -15 -15 -15 -15 -15 -16 -16 -16 -16 -16 -16 -16 -16 -16 -17 -17 -17 -17 -17 -17 -17 -17 -17 -17 -17 -17 -17 -17 -17 -17 -17 -17 -17 -17 -17 -17 -17 -17 -17 -17 -17 -17 -17 -17 -17 -17 -17 -17 -17 -17 -17 -17 -17 -17 -17
-16 -16 -16 -16 -16 -16 -16 -16 -16 -16 -16 -16 -16 -16 -16 -16 -15 -15 -15 -15 -15 -16 -16 -16 -16 -16 -16 -16 -16 -17 -17 -17 -17 -17 -17 -17 -17 -17 -17 -17 -17 -17 -17 -17 -17 -17 -17 -17 -17 -17 -17 -17 -17 -17 -17 -17 -17 -17 -17 -17 -17 -17 -17 -17 -17 -17 -17 -17 -17 -17 -17 -17 -17 -17
-16 -16 -16 -16 -16 -16 -16 -16 -16 -16 -16 -16 -16 -16 -16 -16 -16 -16 -16 -16 -16 -16 -16 -16 -16 -16 -16 -17 -17 -17 -17 -17 -17 -17 -17 -17 -17 -17 -17 -17 -17 -17 -17 -17 -17 -18 -18 -18 -18 -17 -17 -17 -17 -17 -17 -17 -17 -17 -17 -17 -17 -17 -17 -17 -17 -17 -17 -17 -17 -17 -17 -16 -16 -16
-16 -16 -16 -16 -16 -16 -16 -16 -16 -16 -16 -16 -16 -16 -16 -16 -16 -16 -16 -16 -16 -16 -16 -16 -16 -16 -17 -17 -17 -17 -17 -17 -17 -17 -17 -17 -17 -17 -17 -17 -17 -17 -17 -17 -17 -17 -17 -17 -17 -17 -17 -17 -17 -17 -17 -17 -17 -17 -17 -17 -17 -17 -17 -17 -17 -17 -17 -17 -17 -17 -17 -17 -17 -17
-16 -16 -16 -16 -16 -16 -16 -16 -16 -16 -16 -16 -16 -16 -16 -16 -16 -16 -16 -16 -16 -16 -17 -17 -17 -17 -17 -17 -17 -17 -17 -17 -17 -17 -17 -17 -17 -17 -17 -17 -17 -17 -17 -17 -17 -17 -17 -17 -17 -17 -17 -17 -17 -17 -17 -17 -17 -17 -17 -17 -17 -17 -17 -17 -17 -17 -17 -17 -17 -17 -17 -17 -17 -17
-17 -17 -17 -16 -16 -16 -16 -17 -17 -17 -16 -16 -16 -16 -16 -16 -16 -17 -17 -17 -17 -17 -17 -17 -17 -17 -17 -17 -17 -17 -17 -17 -17 -17 -17 -17 -17 -17 -17 -17 -17 -17 -17 -17 -17 -17 -17 -17 -17 -17 -17 -17 -17 -17 -17 -17 -17 -17 -17 -17 -17 -17 -17 -17 -17 -17 -17 -17 -17 -17 -17 -17 -17 -17
-17 -17 -17 -17 -17 -17 -17 -17 -17 -17 -17 -17 -17 -17 -17 -17 -17 -17 -17 -17 -17 -17 -17 -17 -17 -17 -17 -17 -17 -17 -17 -17 -17 -17 -17 -17 -17 -17 -17 -17 -17 -17 -17 -17 -17 -17 -17 -17 -17 -17 -17 -17 -17 -17 -17 -17 -17 -17 -17 -17 -17 -17 -17 -17 -17 -17 -17 -17 -17 -17 -17 -17 -17 -17
-17 -17 -17 -17 -17 -17 -17 -17 -17 -17 -17 -17 -17 -17 -17 -17 -17 -17 -17 -17 -17 -17 -17 -17 -17 -17 -18 -18 -18 -18 -17 -17 -18 -18 -18 -18 -18 -18 -17 -17 -17 -17 -17 -17 -17 -17 -17 -17 -17 -17 -17 -17 -17 -17 -17 -17 -17 -17 -17 -17 -17 -17 -17 -17 -17 -17 -17 -17 -17 -17 -17 -17 -17 -17
-17 -17 -17 -17 -17 -17 -17 -17 -17 -17 -17 -17 -17 -17 -17 -17 -17 -17 -17 -17 -17 -17 -17 -18 -18 -18 -18 -18 -18 -18 -18 -18 -18 -18 -18 -18 -18 -18 -18 -18 -18 -18 -17 -17 -17 -18 -18 -18 -17 -17 -17 -17 -17 -17 -17 -17 -17 -18 -18 -18 -18 -17 -17 -17 -17 -17 -17 -17 -17 -18 -18 -18 -18 -18
-17 -17 -17 -17 -17 -17 -18 -18 -17 -17 -17 -17 -17 -17 -17 -17 -17 -17 -18 -18 -18 -18 -18 -18 -18 -18 -18 -18 -18 -18 -18 -18 -18 -18 -18 -18 -18 -18 -18 -18 -18 -18 -18 -18 -18 -18 -18 -18 -18 -18 -18 -18 -18 -18 -18 -18 -18 -18 -18 -18 -18 -18 -18 -18 -18 -18 -18 -18 -18 -18 -18 -18 -18 -18
-17 -17 -17 -17 -17 -17 -18 -18 -18 -18 -18 -17 -17 -18 -18 -18 -18 -18 -18 -18 -18 -18 -18 -18 -18 -18 -18 -18 -18 -18 -18 -18 -18 -18 -18 -18 -18 -18 -18 -18 -18 -18 -18 -18 -18 -18 -18 -18 -18 -18 -18 -18 -18 -18 -18 -18 -18 -18 -18 -18 -18 -18 -18 -18 -18 -18 -18 -19 -19 -19 -19 -19 -19 -19
-17 -17 -17 -17 -17 -17 -17 -18 -18 -18 -18 -18 -17 -18 -18 -18 -18 -18 -18 -18 -18 -18 -18 -18 -18 -19 -19 -19 -19 -19 -19 -19 -19 -19 -19 -19 -19 -19 -18 -18 -18 -18 -18 -18 -18 -18 -18 -18 -18 -18 -19 -18 -18 -18 -18 -18 -19 -19 -19 -19 -19 -19 -19 -19 -19 -19 -19 -19 -19 -19 -19 -19 -19 -19
-17 -17 -17 -17 -17 -18 -18 -18 -18 -18 -18 -18 -18 -18 -18 -18 -18 -18 -18 -18 -18 -18 -18 -18 -19 -19 -19 -19 -19 -19 -19 -19 -19 -19 -19 -19 -19 -19 -19 -19 -19 -19 -19 -19 -19 -19 -19 -19 -19 -19 -19 -19 -19 -19 -19 -19 -19 -19 -19 -19 -19 -19 -19 -19 -19 -19 -19 -19 -19 -19 -19 -19 -19 -19
-17 -17 -17 -17 -17 -17 -18 -18 -18 -18 -18 -18 -18 -18 -18 -18 -18 -18 -18 -18 -18 -18 -18 -19 -19 -19 -19 -19 -19 -19 -19 -19 -19 -19 -19 -19 -19 -19 -19 -19 -19 -19 -19 -19 -19 -19 -20 -20 -20 -20 -20 -20 -20 -20 -20 -20 -20 -20 -20 -20 -20 -20 -20 -20 -20 -20 -20 -20 -20 -20 -19 -19 -19 -19
-17 -17 -17 -17 -18 -18 -18 -18 -18 -18 -18 -18 -18 -18 -18 -19 -19 -18 -18 -18 -18 -19 -19 -19 -19 -19 -19 -19 -19 -19 -19 -19 -19 -19 -19 -19 -19 -19 -19 -19 -19 -19 -19 -20 -20 -20 -20 -20 -20 -20 -20 -20 -20 -20 -20 -20 -20 -20 -20 -20 -20 -20 -20 -20 -20 -20 -20 -20 -20 -20 -20 -20 -20 -19
-18 -18 -18 -18 -18 -18 -18 -18 -18 -18 -18 -18 -18 -18 -18 -18 -19 -19 -19 -19 -19 -19 -19 -19 -19 -19 -19 -19 -19 -19 -19 -19 -19 -19 -19 -19 -19 -19 -19 -19 -20 -20 -20 -20 -20 -20 -20 -20 -20 -20 -20 -20 -20 -21 -21 -21 -21 -21 -21 -20 -20 -20 -20 -20 -20 -20 -20 -20 -20 -20 -20 -20 -20 -20
-18 -18 -18 -18 -18 -18 -19 -19 -19 -19 -18 -18 -18 -19 -19 -19 -19 -19 -19 -19 -19 -19 -19 -19 -19 -19 -19 -19 -19 -19 -19 -19 -19 -19 -20 -20 -20 -20 -20 -20 -20 -20 -20 -20 -20 -20 -20 -20 -20 -20 -20 -21 -21 -21 -21 -21 -21 -21 -21 -21 -21 -21 -21 -21 -21 -20 -20 -20 -20 -20 -20 -20 -20 -20
-18 -18 -18 -18 -18 -19 -19 -19 -19 -19 -19 -19 -19 -19 -19 -19 -19 -19 -19 -19 -19 -19 -19 -19 -19 -19 -19 -19 -19 -19 -20 -20 -20 -20 -20 -20 -20 -20 -21 -21 -21 -21 -21 -21 -21 -21 -20 -21 -21 -21 -21 -21 -21 -21 -22 -22 -22 -22 -22 -21 -21 -21 -21 -21 -21 -20 -20 -20 -20 -20 -20 -20 -20 -20
-19 -19 -19 -19 -19 -19 -19 -19 -19 -19 -19 -19 -19 -19 -19 -19 -19 -19 -19 -19 -19 -19 -19 -19 -19 -19 -19 -19 -19 -20 -20 -20 -20 -20 -21 -21 -21 -21 -21 -21 -21 -21 -21 -21 -21 -21 -21 -21 -21 -21 -21 -21 -22 -22 -22 -22 -22 -22 -22 -22 -21 -21 -21 -21 -21 -21 -20 -20 -20 -21 -21 -20 -20 -20
-19 -19 -19 -19 -19 -19 -19 -19 -19 -19 -19 -19 -19 -19 -19 -19 -19 -19 -19 -19 -19 -19 -19 -19 -19 -19 -19 -20 -20 -20 -20 -20 -20 -20 -21 -21 -21 -21 -21 -21 -21 -21 -21 -21 -21 -21 -21 -22 -22 -22 -22 -22 -22 -22 -22 -22 -22 -22 -22 -22 -22 -22 -22 -21 -21 -21 -21 -21 -21 -21 -21 -21 -21 -21
-19 -19 -19 -19 -19 -19 -19 -19 -19 -19 -19 -19 -19 -19 -20 -20 -20 -20 -20 -20 -19 -19 -19 -19 -19 -20 -20 -20 -20 -20 -20 -20 -20 -21 -21 -21 -21 -21 -21 -21 -21 -21 -21 -21 -22 -22 -22 -22 -22 -22 -22 -22 -22 -22 -22 -22 -22 -22 -22 -22 -22 -22 -22 -22 -22 -22 -22 -22 -22 -22 -22 -22 -22 -22
-19 -19 -19 -19 -19 -19 -19 -19 -19 -19 -19 -19 -20 -20 -20 -20 -20 -20 -20 -20 -20 -20 -20 -20 -20 -20 -21 -21 -21 -21 -21 -21 -21 -21 -21 -21 -21 -21 -21 -22 -21 -21 -22 -22 -22 -22 -22 -22 -22 -22 -22 -22 -22 -22 -22 -22 -22 -22 -22 -22 -23 -23 -23 -23 -23 -23 -23 -23 -23 -23 -23 -23 -22 -22
-20 -19 -19 -20 -20 -20 -20 -20 -20 -20 -20 -20 -20 -20 -20 -20 -21 -21 -20 -20 -20 -21 -21 -21 -21 -21 -21 -21 -21 -21 -21 -21 -22 -22 -22 -22 -22 -22 -22 -22 -22 -22 -22 -22 -22 -22 -22 -22 -22 -22 -22 -22 -22 -22 -22 -22 -23 -23 -23 -23 -23 -23 -23 -23 -23 -23 -23 -23 -23 -23 -23 -23 -23 -23
-20 -20 -20 -20 -20 -20 -21 -21 -21 -20 -20 -20 -20 -21 -21 -21 -21 -21 -21 -21 -21 -21 -21 -21 -21 -22 -22 -22 -22 -22 -22 -22 -22 -22 -22 -22 -22 -22 -22 -22 -22 -22 -22 -22 -22 -22 -22 -22 -22 -22 -22 -22 -22 -22 -23 -23 -23 -23 -23 -23 -23 -23 -23 -23 -23 -23 -23 -23 -23 -23 -23 -23 -23 -23
-20 -20 -20 -20 -20 -21 -21 -21 -21 -21 -21 -21 -21 -21 -21 -22 -22 -22 -22 -22 -22 -22 -22 -22 -22 -22 -22 -22 -22 -22 -22 -22 -22 -22 -22 -22 -22 -22 -22 -22 -22 -22 -22 -22 -22 -23 -23 -23 -23 -23 -23 -22 -22 -23 -23 -23 -23 -23 -23 -23 -24 -24 -24 -24 -24 -24 -24 -24 -24 -24 -24 -24 -24 -24
-20 -20 -20 -20 -21 -21 -21 -21 -21 -21 -21 -21 -22 -22 -22 -22 -22 -22 -22 -22 -22 -22 -22 -22 -22 -22 -22 -22 -22 -22 -22 -22 -22 -22 -22 -22 -22 -22 -22 -22 -22 -22 -23 -22 -23 -23 -23 -23 -23 -23 -23 -23 -23 -23 -23 -23 -23 -23 -24 -24 -24 -24 -24 -24 -24 -24 -24 -24 -24 -24 -24 -24 -24 -24
-20 -21 -21 -21 -21 -21 -21 -21 -21 -22 -22 -22 -22 -22 -22 -22 -22 -22 -22 -22 -22 -23 -23 -23 -23 -23 -23 -23 -23 -23 -23 -23 -23 -23 -23 -23 -23 -23 -22 -22 -22 -23 -23 -23 -23 -23 -23 -23 -23 -23 -23 -23 -23 -23 -23 -23 -23 -24 -24 -24 -24 -24 -24 -24 -24 -24 -24 -24 -24 -24 -24 -24 -24 -24
-21 -21 -21 -21 -21 -21 -21 -21 -22 -22 -22 -22 -23 -23 -22 -22 -22 -22 -22 -22 -23 -23 -23 -23 -23 -23 -23 -23 -23 -23 -23 -23 -23 -23 -23 -23 -23 -23 -23 -23 -23 -23 -23 -23 -23 -23 -23 -23 -23 -23 -23 -23 -23 -23 -23 -24 -24 -24 -24 -24 -24 -24 -24 -24 -24 -24 -24 -24 -24 -24 -24 -24 -24 -24
-21 -21 -21 -22 -22 -22 -22 -22 -22 -22 -22 -22 -23 -23 -22 -22 -22 -22 -22 -22 -23 -23 -23 -23 -24 -24 -24 -24 -24 -24 -24 -24 -24 -24 -23 -23 -23 -23 -23 -23 -23 -23 -23 -23 -23 -23 -23 -23 -23 -24 -23 -23 -23 -23 -23 -24 -24 -24 -24 -25 -25 -25 -24 -24 -24 -24 -24 -24 -24 -24 -24 -24 -24 -24
-21 -22 -22 -22 -22 -22 -22 -22 -22 -22 -22 -23 -23 -22 -22 -22 -22 -22 -23 -23 -23 -23 -23 -24 -24 -24 -24 -24 -24 -24 -24 -24 -24 -24 -24 -24 -23 -23 -23 -24 -24 -24 -23 -23 -23 -23 -23 -23 -24 -24 -24 -24 -24 -23 -24 -24 -25 -25 -25 -25 -25 -25 -25 -24 -24 -24 -24 -24 -24 -24 -23 -23 -23 -24
-22 -22 -22 -22 -22 -22 -22 -22 -22 -22 -23 -23 -23 -23 -22 -22 -22 -23 -23 -23 -23 -23 -24 -24 -24 -24 -24 -24 -24 -24 -24 -24 -24 -24 -24 -24 -24 -24 -24 -24 -24 -24 -24 -24 -24 -24 -24 -24 -24 -24 -24 -24 -24 -24 -24 -24 -24 -25 -25 -25 -24 -24 -24 -24 -24 -24 -24 -24 -24 -23 -23 -23 -23 -24
-22 -22 -22 -23 -23 -23 -23 -23 -22 -23 -23 -23 -23 -23 -23 -23 -23 -23 -23 -24 -24 -24 -24 -24 -24 -24 -25 -24 -24 -24 -24 -24 -24 -24 -24 -24 -24 -24 -24 -24 -24 -24 -24 -24 -24 -24 -24 -24 -24 -25 -25 -24 -25 -24 -24 -24 -24 -24 -24 -24 -24 -24 -24 -24 -23 -23 -23 -24 -24 -24 -24 -24 -24 -24
-23 -23 -23 -23 -23 -23 -23 -23 -23 -23 -23 -23 -23 -23 -23 -24 -24 -24 -24 -24 -24 -24 -24 -24 -24 -25 -25 -25 -24 -24 -25 -25 -25 -25 -24 -24 -24 -24 -24 -24 -24 -24 -24 -24 -24 -24 -24 -24 -25 -25 -25 -25 -25 -25 -25 -25 -25 -24 -24 -24 -24 -24 -23 -23 -23 -23 -24 -24 -24 -24 -24 -24 -24 -24
-23 -23 -23 -24 -23 -23 -23 -23 -23 -23 -23 -23 -23 -23 -24 -24 -24 -24 -24 -24 -24 -24 -24 -24 -24 -25 -25 -25 -25 -25 -25 -25 -25 -25 -25 -25 -25 -25 -25 -25 -24 -24 -24 -24 -24 -25 -25 -25 -25 -25 -25 -25 -25 -25 -25 -25 -25 -24 -24 -24 -24 -23 -23 -23 -23 -24 -24 -24 -24 -24 -24 -24 -24 -24
-24 -24 -24 -24 -24 -24 -24 -24 -24 -24 -24 -24 -24 -24 -24 -24 -24 -24 -24 -24 -24 -24 -25 -25 -25 -25 -25 -25 -25 -25 -25 -25 -26 -25 -25 -25 -25 -25 -25 -25 -25 -25 -25 -25 -25 -25 -25 -25 -25 -25 -25 -25 -25 -25 -25 -25 -25 -25 -24 -24 -24 -23 -23 -23 -24 -24 -24 -24 -24 -24 -24 -24 -24 -24
-25 -24 -24 -24 -24 -24 -25 -25 -24 -24 -25 -25 -24 -24 -24 -24 -24 -24 -24 -24 -24 -25 -25 -25 -25 -25 -25 -25 -25 -25 -25 -25 -25 -25 -25 -25 -25 -25 -25 -25 -25 -25 -25 -26 -26 -26 -26 -26 -26 -26 -26 -26 -26 -26 -26 -25 -25 -24 -24 -24 -24 -23 -23 -24 -24 -24 -25 -25 -24 -24 -24 -24 -24 -24
-26 -26 -25 -25 -25 -25 -25 -25 -25 -25 -25 -25 -25 -25 -25 -25 -25 -25 -25 -25 -25 -25 -25 -25 -25 -26 -26 -25 -25 -25 -25 -25 -26 -26 -26 -26 -26 -26 -26 -26 -26 -26 -26 -26 -26 -26 -26 -26 -26 -26 -26 -26 -26 -26 -26 -25 -25 -25 -24 -24 -24 -23 -24 -24 -24 -25 -25 -24 -24 -24 -24 -24 -24 -24
-26 -26 -26 -26 -26 -26 -25 -25 -25 -25 -25 -25 -25 -25 -25 -26 -26 -26 -26 -26 -26 -26 -26 -26 -26 -26 -26 -26 -26 -26 -26 -26 -26 -26 -26 -26 -26 -26 -26 -26 -26 -26 -26 -26 -26 -26 -26 -26 -26 -26 -26 -26 -26 -26 -26 -26 -25 -25 -24 -24 -24 -24 -24 -24 -24 -24 -24 -24 -24 -24 -24 -24 -24 -24
-27 -27 -27 -27 -26 -26 -26 -26 -26 -26 -26 -26 -26 -26 -26 -26 -26 -26 -26 -27 -27 -27 -26 -26 -27 -27 -27 -27 -27 -27 -27 -27 -27 -27 -27 -27 -27 -27 -27 -27 -27 -27 -26 -27 -27 -27 -27 -27 -27 -27 -27 -26 -26 -26 -26 -26 -26 -25 -25 -24 -24 -24 -24 -24 -24 -24 -24 -24 -24 -24 -24 -24 -24 -24
-28 -27 -27 -27 -27 -27 -26 -26 -26 -26 -26 -26 -26 -27 -27 -27 -27 -27 -27 -27 -27 -27 -27 -27 -27 -27 -27 -27 -27 -27 -27 -27 -27 -27 -27 -27 -27 -27 -27 -27 -27 -27 -27 -27 -27 -27 -27 -27 -27 -27 -27 -27 -26 -26 -26 -26 -26 -25 -25 -25 -24 -24 -24 -24 -24 -24 -24 -24 -24 -24 -24 -24 -24 -24
-28 -28 -28 -28 -28 -27 -27 -27 -27 -27 -27 -27 -27 -27 -27 -27 -27 -27 -27 -27 -27 -27 -28 -28 -28 -28 -28 -28 -28 -28 -28 -28 -28 -28 -28 -28 -28 -28 -28 -27 -27 -27 -27 -27 -28 -28 -28 -28 -27 -27 -27 -27 -26 -26 -26 -26 -26 -26 -25 -25 -25 -24 -24 -24 -24 -24 -24 -24 -24 -24 -24 -24 -24 -24
Height
5785 5786 5786 5786 5786 5786 5787 5787 5787 5788 5789 5789 5789 5789 5789 5789 5789 5789 5790 5790 5791 5791 5791 5791 5791 5791 5791 5790 5790 5789 5789 5788 5788 5788 5789 5789 5788 5788 5788 5788 5788 5788 5788 5787 5787 5787 5786 5786 5786 5785 5785 5785 5784 5784 5784 5784 5783 5783 5782 5782 5781 5781 5780 5780 5779 5779 5779 5779 5778 5778 5777 5776 5776 5775
5783 5783 5784 5784 5784 5785 5785 5785 5786 5787 5787 5787 5787 5787 5787 5787 5787 5788 5788 5788 5789 5789 5789 5789 5789 5789 5789 5789 5788 5787 5787 5786 5786 5787 5787 5787 5787 5786 5786 5786 5786 5786 5786 5785 5785 5785 5784 5784 5784 5783 5783 5783 5782 5782 5782 5782 5781 5781 5780 5780 5780 5779 5778 5777 5777 5777 5776 5776 5775 5775 5774 5774 5773 5773
5781 5782 5782 5782 5782 5783 5783 5783 5784 5785 5785 5785 5785 5785 5785 5785 5785 5786 5786 5786 5787 5787 5787 5787 5787 5787 5787 5787 5786 5785 5785 5785 5785 5785 5785 5785 5785 5785 5785 5785 5784 5784 5783 5783 5783 5782 5782 5782 5781 5781 5780 5780 5780 5780 5780 5779 5779 5778 5778 5778 5777 5777 5776 5775 5775 5774 5773 5773 5772 5772 5771 5771 5770 5770
5779 5780 5780 5780 5780 5781 5781 5782 5782 5783 5783 5783 5783 5783 5783 5783 5783 5784 5784 5784 5785 5785 5785 5785 5785 5785 5785 5785 5784 5784 5783 5783 5783 5783 5783 5783 5783 5783 5783 5782 5782 5782 5781 5781 5780 5780 5779 5779 5779 5778 5778 5778 5777 5777 5777 5777 5776 5776 5776 5775 5775 5774 5774 5773 5772 5771 5771 5770 5769 5769 5768 5767 5767 5766
5778 5778 5778 5779 5778 5779 5779 5780 5780 5781 5781 5781 5781 5782 5782 5782 5782 5782 5782 5783 5783 5783 5783 5783 5783 5783 5783 5783 5782 5782 5781 5781 5781 5781 5781 5781 5781 5781 5781 5780 5780 5780 5779 5779 5778 5778 5777 5777 5777 5776 5776 5775 5775 5775 5774 5774 5774 5773 5773 5773 5772 5772 5771 5770 5769 5768 5767 5767 5766 5765 5765 5764 5763 5762
5776 5776 5776 5777 5777 5777 5777 5777 5778 5779 5779 5779 5779 5780 5780 5780 5780 5780 5780 5781 5781 5781 5781 5781 5781 5781 5780 5780 5780 5780 5779 5779 5779 5779 5779 5779 5779 5779 5778 5778 5778 5777 5777 5777 5776 5776 5775 5775 5774 5774 5774 5773 5773 5772 5772 5771 5771 5770 5770 5769 5769 5768 5768 5767 5766 5765 5763 5763 5762 5761 5760 5759 5759 5758
5774 5774 5774 5774 5774 5775 5775 5775 5775 5776 5776 5777 5777 5777 5778 5778 5778 5778 5778 5779 5779 5779 5779 5779 5779 5778 5778 5777 5777 5777 5777 5777 5777 5776 5776 5776 5777 5776 5776 5776 5775 5775 5775 5775 5774 5773 5773 5772 5771 5771 5771 5771 5770 5770 5769 5768 5768 5767 5766 5766 5765 5764 5764 5763 5762 5761 5759 5758 5757 5756 5755 5754 5754 5753
5772 5772 5772 5772 5772 5772 5773 5773 5773 5773 5773 5774 5774 5775 5775 5775 5776 5776 5776 5776 5777 5777 5777 5776 5776 5776 5775 5775 5775 5775 5775 5775 5775 5774 5774 5774 5774 5774 5774 5774 5773 5772 5772 5772 5771 5771 5770 5769 5769 5768 5768 5767 5767 5766 5765 5764 5764 5763 5762 5761 5761 5760 5759 5758 5758 5756 5755 5754 5752 5751 5750 5749 5748 5747
5769 5770 5770 5770 5770 5770 5770 5770 5771 5771 5771 5771 5772 5772 5772 5773 5773 5773 5773 5774 5774 5774 5774 5774 5774 5774 5773 5773 5773 5774 5774 5773 5773 5773 5772 5772 5772 5771 5771 5771 5771 5770 5769 5769 5768 5768 5767 5767 5766 5766 5765 5764 5763 5762 5761 5760 5759 5758 5758 5757 5756 5755 5754 5753 5752 5751 5750 5749 5747 5746 5745 5744 5743 5741
5767 5767 5768 5767 5767 5767 5768 5768 5768 5768 5768 5769 5769 5769 5770 5770 5770 5771 5771 5771 5771 5771 5771 5771 5771 5771 5771 5771 5771 5771 5771 5771 5771 5771 5770 5769 5769 5768 5768 5768 5768 5767 5766 5766 5765 5765 5765 5764 5764 5763 5762 5760 5759 5758 5757 5756 5755 5754 5753 5753 5752 5750 5749 5748 5747 5746 5745 5743 5742 5740 5739 5737 5736 5735
5764 5765 5765 5765 5765 5765 5766 5766 5766 5766 5766 5767 5767 5767 5767 5768 5768 5768 5768 5768 5768 5767 5767 5767 5768 5768 5768 5768 5768 5768 5768 5768 5768 5767 5767 5766 5766 5765 5765 5765 5765 5764 5763 5763 5762 5762 5762 5761 5760 5759 5758 5757 5755 5754 5753 5752 5751 5750 5749 5748 5747 5745 5744 5743 5742 5740 5739 5737 5736 5734 5733 5731 5730 5729
5761 5761 5762 5762 5763 5763 5763 5764 5764 5764 5764 5765 5765 5765 5765 5765 5765 5765 5765 5765 5764 5764 5764 5764 5764 5764 5764 5764 5765 5764 5764 5764 5764 5763 5763 5763 5762 5762 5761 5761 5761 5760 5759 5759 5759 5758 5758 5757 5756 5755 5754 5753 5751 5750 5749 5748 5747 5746 5744 5743 5741 5740 5739 5737 5736 5735 5733 5731 5730 5728 5726 5725 5723 5722
5758 5758 5759 5759 5760 5760 5761 5761 5761 5762 5762 5762 5762 5763 5763 5763 5763 5763 5762 5762 5762 5762 5761 5761 5761 5761 5761 5761 5761 5761 5761 5761 5760 5760 5759 5759 5758 5757 5757 5757 5756 5756 5755 5755 5754 5754 5753 5752 5751 5750 5749 5747 5746 5745 5744 5743 5742 5740 5738 5737 5735 5734 5732 5731 5729 5728 5727 5725 5723 5721 5719 5718 5716 5715
5755 5755 5755 5756 5756 5757 5758 5758 5759 5759 5759 5760 5760 5760 5760 5760 5760 5760 5760 5760 5759 5759 5759 5758 5758 5758 5758 5757 5757 5757 5757 5757 5756 5756 5755 5755 5754 5753 5753 5752 5752 5751 5751 5750 5749 5749 5748 5747 5746 5745 5743 5742 5740 5739 5738 5736 5735 5733 5731 5729 5728 5726 5725 5723 5722 5720 5719 5718 5716 5714 5713 5711 5709 5707
5751 5752 5752 5753 5754 5754 5755 5756 5756 5756 5757 5757 5757 5757 5756 5757 5757 5757 5757 5757 5756 5756 5756 5756 5755 5755 5755 5755 5754 5754 5754 5753 5753 5752 5751 5750 5750 5749 5748 5748 5747 5746 5746 5745 5744 5743 5742 5741 5740 5738 5737 5735 5734 5732 5731 5730 5728 5726 5724 5723 5721 5719 5718 5716 5715 5713 5712 5710 5708 5707 5705 5704 5702 5701
5748 5748 5749 5749 5750 5751 5752 5752 5753 5753 5753 5753 5753 5753 5752 5752 5752 5752 5753 5753 5753 5752 5752 5752 5752 5752 5751 5751 5751 5750 5750 5749 5748 5748 5747 5746 5745 5744 5743 5742 5741 5741 5740 5739 5738 5737 5736 5734 5733 5732 5731 5729 5728 5726 5725 5723 5721 5719 5718 5716 5714 5713 5711 5710 5708 5706 5704 5702 5701 5699 5698 5696 5695 5693
5745 5745 5745 5746 5746 5747 5748 5748 5748 5748 5748 5749 5748 5748 5748 5748 5748 5748 5748 5748 5748 5748 5748 5748 5747 5747 5747 5747 5746 5746 5745 5744 5744 5743 5742 5741 5740 5739 5738 5737 5736 5735 5734 5733 5732 5731 5729 5728 5727 5726 5725 5724 5722 5720 5718 5717 5715 5713 5711 5709 5708 5706 5704 5703 5701 5699 5697 5695 5693 5691 5689 5687 5686 5684
5742 5742 5742 5742 5743 5743 5744 5744 5744 5744 5744 5744 5745 5744 5744 5743 5743 5744 5744 5744 5744 5743 5743 5743 5743 5743 5743 5742 5742 5741 5741 5740 5739 5738 5737 5736 5735 5734 5733 5732 5731 5730 5729 5728 5727 5725 5724 5723 5722 5720 5719 5717 5715 5713 5711 5709 5708 5706 5704 5702 5700 5699 5697 5695 5693 5691 5689 5687 5685 5683 5681 5679 5677 5675
5739 5740 5740 5739 5739 5739 5739 5740 5740 5740 5740 5740 5740 5741 5740 5740 5739 5739 5739 5739 5739 5738 5738 5738 5738 5738 5738 5737 5736 5736 5735 5734 5734 5733 5732 5731 5730 5729 5728 5727 5726 5725 5724 5722 5721 5720 5718 5717 5716 5714 5712 5710 5707 5705 5703 5701 5699 5698 5696 5694 5692 5690 5689 5687 5685 5682 5680 5678 5676 5674 5672 5670 5668 5666
5736 5736 5736 5736 5736 5736 5735 5735 5735 5736 5736 5736 5736 5736 5737 5736 5735 5734 5734 5734 5734 5733 5733 5733 5733 5732 5732 5731 5731 5730 5729 5729 5728 5727 5726 5725 5724 5723 5722 5721 5720 5718 5717 5716 5715 5713 5712 5710 5709 5707 5705 5703 5700 5698 5695 5693 5691 5689 5686 5684 5683 5681 5679 5678 5676 5673 5671 5669 5667 5664 5662 5660 5658 5657
5732 5732 5732 5732 5731 5731 5731 5731 5731 5731 5731 5731 5731 5731 5731 5731 5730 5729 5729 5729 5728 5728 5728 5727 5727 5726 5726 5725 5724 5724 5723 5722 5722 5721 5720 5719 5718 5717 5716 5715 5713 5712 5711 5710 5708 5707 5705 5703 5702 5700 5698 5696 5693 5691 5688 5686 5683 5680 5677 5675 5673 5671 5669 5668 5666 5664 5661 5659 5657 5654 5652 5650 5648 5646
5727 5727 5727 5727 5727 5726 5726 5726 5726 5726 5726 5726 5726 5725 5725 5725 5724 5723 5723 5722 5722 5722 5721 5721 5721 5720 5720 5719 5718 5717 5716 5716 5715 5715 5714 5713 5712 5711 5710 5709 5707 5706 5705 5703 5701 5700 5698 5696 5694 5693 5691 5690 5687 5684 5681 5678 5675 5671 5668 5666 5663 5661 5659 5657 5655 5653 5650 5648 5645 5643 5640 5638 5637 5635
5721 5721 5721 5722 5722 5722 5722 5721 5721 5721 5721 5720 5720 5720 5719 5718 5718 5717 5717 5716 5716 5715 5715 5715 5715 5714 5713 5712 5712 5711 5710 5709 5709 5708 5707 5706 5705 5704 5703 5702 5701 5699 5698 5696 5694 5692 5690 5688 5686 5685 5684 5683 5681 5678 5675 5671 5667 5663 5659 5657 5654 5651 5648 5646 5643 5640 5638 5636 5633 5630 5627 5625 5624 5624
5717 5716 5716 5716 5717 5717 5717 5716 5715 5715 5715 5714 5714 5713 5713 5712 5712 5711 5711 5710 5710 5709 5709 5709 5708 5707 5707 5706 5705 5704 5704 5703 5703 5702 5701 5700 5699 5698 5697 5695 5694 5692 5690 5689 5687 5685 5684 5682 5680 5678 5677 5675 5674 5672 5668 5664 5659 5654 5650 5647 5644 5640 5637 5634 5631 5629 5626 5624 5621 5618 5615 5613 5612 5611
5711 5711 5710 5710 5710 5709 5709 5709 5708 5708 5708 5707 5707 5707 5706 5706 5705 5705 5704 5704 5703 5703 5702 5702 5701 5701 5700 5699 5699 5698 5698 5697 5697 5696 5695 5694 5693 5691 5690 5688 5687 5685 5683 5682 5680 5679 5677 5676 5674 5672 5670 5667 5665 5663 5660 5656 5650 5644 5640 5637 5634 5630 5627 5624 5621 5619 5616 5613 5610 5607 5604 5602 5601 5600
5706 5705 5703 5702 5702 5702 5701 5701 5701 5701 5701 5700 5700 5699 5699 5699 5699 5698 5698 5697 5697 5696 5695 5695 5694 5694 5693 5693 5692 5692 5692 5691 5690 5690 5689 5688 5686 5685 5683 5682 5680 5678 5676 5675 5674 5672 5671 5669 5667 5665 5663 5660 5657 5654 5651 5647 5642 5636 5631 5627 5623 5620 5617 5615 5613 5610 5607 5604 5601 5597 5595 5593 5592 5591
5699 5700 5697 5694 5694 5694 5694 5694 5694 5693 5693 5693 5692 5692 5692 5692 5692 5692 5691 5691 5690 5689 5689 5688 5688 5687 5687 5686 5686 5686 5685 5685 5684 5683 5682 5681 5679 5678 5676 5675 5673 5672 5670 5669 5667 5666 5664 5662 5660 5658 5655 5653 5650 5647 5642 5638 5633 5628 5624 5619 5614 5611 5608 5606 5604 5601 5599 5596 5592 5589 5588 5586 5585 5583
5692 5693 5690 5687 5686 5686 5686 5686 5686 5686 5686 5686 5686 5685 5685 5685 5685 5685 5684 5684 5683 5682 5682 5681 5681 5680 5680 5680 5679 5679 5679 5678 5677 5676 5675 5674 5673 5671 5670 5668 5667 5665 5664 5663 5661 5660 5658 5656 5653 5651 5648 5645 5642 5638 5634 5630 5625 5621 5617 5613 5607 5603 5600 5598 5596 5594 5591 5588 5585 5582 5581 5579 5578 5576
5684 5684 5682 5680 5679 5679 5678 5678 5678 5678 5678 5678 5678 5677 5677 5677 5677 5677 5677 5676 5676 5676 5675 5674 5674 5673 5673 5673 5673 5672 5672 5671 5670 5669 5668 5667 5666 5665 5663 5662 5661 5659 5658 5657 5655 5653 5651 5649 5647 5644 5641 5638 5634 5629 5625 5622 5618 5613 5609 5606 5602 5597 5594 5591 5589 5587 5584 5581 5578 5576 5574 5573 5572 5570
5677 5676 5675 5673 5672 5671 5671 5672 5671 5671 5671 5670 5670 5670 5670 5670 5669 5669 5669 5669 5668 5668 5668 5667 5667 5666 5666 5666 5666 5665 5665 5664 5663 5662 5661 5661 5660 5659 5657 5656 5655 5653 5652 5650 5649 5647 5645 5643 5640 5638 5635 5631 5626 5621 5618 5615 5612 5607 5602 5599 5596 5592 5588 5586 5584 5581 5579 5576 5573 5570 5569 5568 5567 5565
5668 5667 5667 5666 5665 5665 5665 5664 5664 5663 5663 5663 5663 5662 5662 5661 5661 5661 5661 5661 5661 5660 5660 5659 5659 5659 5659 5659 5659 5658 5657 5656 5656 5655 5655 5654 5654 5653 5652 5650 5649 5647 5645 5643 5642 5641 5639 5637 5634 5631 5628 5624 5619 5615 5611 5607 5605 5601 5596 5592 5589 5586 5584 5581 5579 5576 5574 5571 5568 5566 5565 5564 5562 5560
5658 5658 5658 5658 5658 5658 5658 5657 5656 5656 5655 5654 5654 5654 5653 5653 5653 5653 5653 5653 5652 5652 5652 5651 5651 5651 5651 5652 5651 5651 5650 5650 5649 5649 5649 5648 5647 5646 5645 5644 5643 5641 5639 5637 5635 5634 5632 5630 5627 5623 5620 5617 5613 5610 5606 5601 5598 5595 5591 5587 5584 5581 5579 5577 5575 5572 5570 5567 5564 5562 5561 5560 5558 5556
5650 5650 5650 5650 5651 5651 5651 5650 5648 5646 5646 5646 5645 5645 5644 5644 5645 5645 5645 5645 5644 5644 5644 5644 5644 5644 5644 5644 5644 5644 5643 5643 5643 5643 5642 5641 5641 5640 5638 5637 5636 5635 5633 5631 5629 5627 5625 5622 5619 5616 5613 5610 5607 5604 5601 5597 5593 5590 5587 5583 5580 5578 5575 5572 5570 5568 5566 5564 5561 5558 5557 5556 5554 5553
5642 5642 5642 5643 5644 5643 5642 5642 5640 5638 5637 5637 5636 5636 5636 5637 5637 5638 5638 5638 5638 5637 5637 5637 5637 5637 5637 5637 5637 5637 5637 5636 5636 5636 5635 5635 5634 5633 5632 5631 5630 5629 5628 5626 5624 5622 5620 5616 5612 5609 5606 5604 5600 5598 5596 5593 5589 5586 5583 5580 5577 5575 5572 5569 5566 5564 5562 5560 5557 5555 5553 5552 5550 5549
5633 5633 5633 5633 5634 5634 5633 5633 5632 5631 5630 5629 5629 5629 5630 5630 5631 5631 5632 5632 5631 5631 5630 5630 5630 5630 5630 5630 5630 5630 5630 5630 5629 5629 5628 5628 5627 5627 5626 5625 5623 5622 5621 5620 5618 5616 5614 5612 5608 5603 5599 5597 5594 5591 5589 5588 5585 5582 5579 5577 5574 5572 5568 5566 5563 5561 5558 5556 5554 5551 5549 5548 5547 5545
5624 5624 5623 5624 5625 5625 5625 5625 5625 5625 5624 5623 5622 5623 5624 5624 5625 5625 5625 5624 5624 5623 5623 5623 5623 5622 5623 5623 5624 5624 5623 5623 5622 5622 5621 5621 5621 5620 5619 5618 5617 5616 5614 5613 5612 5610 5608 5605 5603 5599 5595 5592 5588 5585 5583 5582 5580 5577 5574 5572 5570 5568 5565 5562 5560 5557 5555 5553 5550 5548 5546 5544 5543 5542
5614 5615 5615 5615 5616 5617 5617 5617 5618 5618 5617 5617 5616 5617 5617 5617 5617 5617 5617 5616 5616 5616 5616 5616 5616 5616 5616 5617 5617 5617 5616 5615 5615 5614 5614 5614 5614 5614 5613 5612 5610 5609 5608 5607 5606 5604 5602 5599 5597 5594 5591 5588 5585 5582 5579 5577 5576 5574 5571 5568 5566 5564 5561 5559 5557 5554 5552 5550 5547 5545 5543 5542 5540 5539
5605 5606 5606 5607 5608 5608 5608 5609 5610 5611 5611 5610 5610 5610 5609 5609 5609 5610 5610 5610 5610 5609 5609 5609 5609 5610 5610 5610 5610 5609 5609 5608 5607 5607 5608 5608 5608 5607 5606 5605 5604 5603 5601 5599 5598 5597 5595 5593 5590 5588 5586 5584 5582 5579 5576 5574 5572 5570 5568 5565 5563 5561 5558 5556 5554 5551 5549 5547 5545 5543 5541 5539 5538 5537
5595 5597 5598 5599 5599 5599 5599 5600 5602 5603 5603 5603 5603 5602 5602 5602 5602 5603 5603 5603 5603 5602 5602 5602 5603 5603 5604 5603 5603 5603 5602 5601 5601 5601 5601 5601 5600 5600 5599 5598 5597 5595 5593 5592 5590 5589 5588 5586 5584 5582 5581 5579 5578 5576 5573 5571 5569 5567 5565 5562 5560 5558 5556 5553 5551 5548 5546 5544 5542 5541 5539 5537 5535 5534
5585 5587 5589 5590 5590 5590 5591 5592 5593 5594 5594 5595 5595 5595 5595 5596 5596 5596 5596 5596 5595 5594 5595 5595 5596 5597 5597 5597 5597 5596 5595 5595 5594 5594 5594 5593 5593 5592 5591 5590 5589 5587 5586 5584 5583 5582 5581 5579 5578 5577 5576 5575 5574 5572 5570 5568 5566 5564 5562 5559 5557 5555 5553 5550 5548 5546 5544 5542 5540 5538 5537 5535 5533 5532
5576 5577 5578 5579 5580 5581 5582 5583 5584 5585 5586 5587 5586 5586 5587 5588 5589 5589 5589 5588 5587 5586 5587 5589 5590 5590 5590 5590 5590 5589 5588 5588 5587 5586 5586 5585 5584 5584 5583 5582 5581 5579 5578 5577 5576 5575 5574 5573 5572 5571 5571 5571 5570 5569 5567 5566 5563 5561 5559 5557 5555 5553 5550 5548 5546 5544 5542 5540 5538 5536 5534 5533 5531 5529
5568 5567 5568 5569 5571 5572 5574 5575 5575 5576 5577 5577 5577 5578 5580 5580 5580 5580 5580 5579 5578 5579 5580 5581 5582 5582 5582 5581 5581 5580 5580 5579 5579 5578 5578 5577 5576 5576 5575 5574 5573 5572 5571 5570 5568 5568 5567 5567 5566 5567 5567 5567 5566 5566 5565 5563 5561 5559 5557 5555 5553 5551 5548 5546 5544 5542 5540 5538 5536 5534 5532 5531 5529 5527
5559 5559 5560 5561 5563 5565 5566 5567 5567 5567 5568 5569 5570 5571 5572 5572 5572 5572 5571 5570 5570 5571 5573 5574 5574 5574 5574 5573 5572 5572 5572 5572 5572 5571 5571 5570 5570 5569 5568 5567 5566 5565 5564 5563 5562 5561 5561 5562 5562 5562 5563 5563 5563 5563 5562 5561 5559 5557 5555 5553 5551 5549 5547 5545 5542 5540 5538 5536 5533 5532 5530 5529 5527 5525
5549 5551 5552 5553 5554 5556 5558 5559 5560 5560 5561 5562 5563 5564 5564 5564 5564 5564 5563 5564 5565 5566 5567 5568 5568 5568 5567 5567 5566 5566 5566 5566 5566 5565 5565 5564 5563 5562 5562 5561 5560 5559 5558 5557 5557 5557 5557 5557 5558 5558 5559 5559 5559 5559 5559 5558 5557 5555 5553 5551 5549 5547 5545 5543 5541 5539 5536 5534 5531 5530 5528 5527 5525 5523
5540 5543 5544 5546 5547 5549 5550 5552 5553 5554 5554 5555 5556 5557 5557 5558 5558 5557 5557 5558 5560 5562 5562 5563 5563 5563 5562 5562 5561 5561 5560 5560 5560 5559 5559 5558 5557 5556 5555 5555 5554 5553 5553 5553 5553 5553 5553 5554 5554 5555 5555 5556 5556 5556 5556 5555 5554 5553 5552 5550 5548 5546 5544 5542 5539 5537 5535 5532 5530 5528 5526 5524 5523 5521
Wind_Speed
13 14 15 16 17 18 19 19 19 19 19 19 19 19 18 17 17 17 17 17 19 20 20 21 22 22 23 23 22 23 23 23 22 20 18 17 16 16 16 15 15 15 15 15 16 16 17 17 17 17 17 17 17 17 17 17 17 17 18 18 18 18 18 18 19 19 20 20 21 21 22 22 23 23
13 14 15 16 17 18 20 20 20 19 19 20 20 20 19 18 18 17 18 18 19 20 20 22 22 23 23 23 23 23 23 23 22 20 18 17 17 17 16 15 15 15 16 16 16 16 17 17 17 17 17 17 17 17 17 18 18 18 18 18 18 19 19 19 19 20 21 21 22 22 23 24 24 25
14 14 15 16 18 19 20 21 21 20 20 20 21 20 20 19 19 19 19 19 20 20 21 23 23 23 22 23 23 24 24 24 23 21 19 18 18 18 17 16 16 17 17 17 17 17 17 17 17 17 17 17 17 16 16 16 17 17 18 18 19 19 19 20 20 21 22 23 24 24 25 26 26 27
15 15 16 17 18 20 21 21 21 20 20 20 20 20 20 19 19 19 20 20 21 21 22 24 24 24 23 24 25 25 24 24 23 22 20 19 19 18 17 17 17 17 17 17 17 17 17 17 17 17 17 17 17 16 16 16 17 18 19 20 21 21 21 21 21 22 23 23 25 26 26 27 28 29
16 16 16 17 19 20 20 21 20 20 19 20 20 20 19 20 20 20 21 21 22 22 24 25 25 24 24 25 25 25 24 24 23 22 20 19 18 18 18 18 18 19 19 18 18 18 18 18 18 18 18 18 18 18 18 19 20 21 22 23 23 23 23 23 23 24 24 25 26 27 28 29 29 30
17 18 18 18 18 19 20 20 20 19 19 19 19 19 20 20 21 21 21 22 23 24 25 26 25 25 25 26 25 24 24 23 22 21 20 19 18 19 19 20 20 21 21 21 21 20 20 20 20 20 20 20 21 21 22 23 24 24 25 25 25 26 26 26 27 27 28 28 29 29 30 31 31 32
19 19 19 20 20 20 20 20 20 20 19 19 19 20 20 21 21 21 22 22 23 24 25 26 26 25 25 25 25 25 24 23 22 21 20 20 20 20 21 21 22 23 23 24 23 23 22 22 22 22 22 23 23 24 25 25 26 26 26 26 27 27 28 29 30 30 31 31 31 32 32 33 34 34
20 20 21 21 21 21 21 21 20 20 20 20 20 20 21 21 21 21 21 22 23 24 24 25 25 26 26 25 25 25 24 23 22 21 21 21 22 23 23 24 24 24 25 25 26 25 24 24 24 24 24 24 25 25 26 26 26 27 28 29 30 30 31 32 33 34 34 35 35 36 36 37 37 38
19 20 21 21 21 21 21 21 21 21 21 21 22 21 21 21 21 21 22 22 23 24 24 24 25 25 25 25 25 25 24 24 23 23 23 23 24 25 25 26 26 26 26 27 27 27 26 26 25 25 25 25 26 27 28 28 29 30 31 32 33 34 35 36 37 37 38 39 39 40 40 40 41 41
18 19 20 21 22 22 22 22 21 21 22 22 22 22 22 22 22 22 23 23 24 24 25 25 25 25 25 26 26 26 26 26 26 26 26 26 26 26 27 28 28 28 28 28 28 28 27 27 26 26 27 28 29 30 31 32 33 33 34 35 37 38 38 39 40 41 41 42 43 43 44 44 44 44
19 19 19 20 22 22 22 22 23 23 23 23 23 23 23 23 23 23 23 24 24 25 25 25 25 25 25 26 27 27 28 28 28 27 27 27 27 28 28 29 29 30 30 30 30 29 29 29 29 30 31 32 33 34 35 36 37 37 38 39 40 41 42 43 44 45 45 46 46 46 47 47 47 48
20 19 19 20 21 22 23 23 23 23 24 24 24 24 24 24 24 23 23 23 23 23 24 24 24 25 26 27 28 28 29 29 29 29 29 29 29 29 29 29 30 31 31 32 32 31 32 32 33 34 36 37 38 39 40 41 42 43 43 44 45 46 47 48 48 49 50 50 50 50 50 50 50 50
20 20 20 20 20 21 22 23 23 23 23 23 23 23 22 22 22 22 22 23 23 23 23 24 24 26 27 28 29 30 30 30 30 30 30 29 29 29 30 30 31 32 33 34 34 35 36 37 38 40 41 42 43 44 45 46 46 47 47 48 48 49 49 50 50 51 51 52 52 52 52 52 52 51
21 21 21 21 21 21 21 21 21 21 21 21 21 21 21 21 21 22 23 23 24 24 24 25 26 27 28 29 30 30 30 31 30 30 30 31 31 32 32 33 34 35 37 38 39 39 40 41 42 43 44 45 46 47 47 48 48 49 49 50 50 50 51 51 52 52 52 52 52 52 52 52 52 52
21 21 22 22 21 21 20 20 21 21 21 21 20 21 21 22 22 22 23 23 24 25 25 26 27 28 29 29 30 30 31 31 32 32 33 34 35 36 37 37 38 39 40 41 42 43 43 44 45 45 46 47 47 48 48 49 49 50 50 51 51 51 52 52 52 53 53 53 52 52 51 51 51 51
20 20 20 21 21 21 21 21 21 22 22 22 21 21 21 22 23 23 23 24 25 25 26 27 28 28 29 30 31 32 33 34 35 35 36 37 38 39 40 40 41 42 42 43 44 44 45 46 46 46 47 47 47 48 48 48 49 50 50 51 51 51 51 52 52 52 53 53 53 53 53 52 53 53
18 19 19 20 21 22 22 22 23 23 23 23 23 23 23 24 24 25 25 25 26 27 27 28 28 29 31 32 33 34 35 36 37 37 38 39 40 42 42 43 43 43 43 43 44 44 44 45 45 46 46 46 47 47 48 48 49 49 50 51 51 52 52 52 53 53 54 55 55 56 56 57 57 57
21 20 21 21 22 23 24 25 25 25 25 25 25 25 25 27 27 27 27 28 28 29 29 30 31 32 33 34 35 36 37 38 39 40 41 42 43 44 44 43 43 42 42 42 43 43 44 45 46 47 47 49 50 51 51 51 51 52 52 53 53 54 55 55 56 57 58 58 59 59 60 60 60 60
25 24 24 25 25 26 27 27 28 28 28 28 27 25 26 29 31 31 31 31 31 31 32 32 33 35 36 37 38 39 40 41 42 42 43 43 43 43 43 42 42 41 41 42 44 45 47 48 49 50 51 52 53 54 54 54 54 55 55 56 56 57 57 58 59 60 61 61 61 61 62 62 61 61
27 28 28 28 29 30 31 31 31 31 31 31 31 29 29 32 35 36 35 34 34 35 35 36 37 38 39 40 40 41 42 43 43 43 43 43 42 42 42 42 42 42 43 44 46 48 50 51 52 52 53 54 54 55 55 56 56 57 58 59 59 60 60 61 61 62 62 62 62 62 62 62 62 61
31 31 32 33 33 34 34 34 35 35 35 35 36 35 34 36 37 37 37 37 37 38 38 39 40 41 41 42 42 42 43 44 44 44 44 43 43 43 43 43 44 45 46 48 49 50 51 52 53 53 53 54 54 54 55 56 57 58 60 61 63 63 64 64 64 64 64 65 65 66 66 65 64 63
35 36 36 36 37 37 36 36 36 37 38 39 40 40 39 39 39 38 39 39 40 41 41 42 43 44 44 44 44 43 43 44 45 45 45 45 44 45 45 46 47 48 49 50 52 52 52 53 52 52 52 52 53 54 55 57 59 61 63 65 66 67 68 68 69 69 69 69 69 69 69 68 67 65
38 38 38 38 39 39 39 39 40 41 42 43 43 43 43 42 41 41 42 42 42 43 43 44 46 47 47 46 45 45 45 46 47 47 47 46 46 47 48 49 50 51 52 53 53 53 52 52 51 52 52 53 54 55 58 60 62 65 67 69 71 72 73 73 73 73 73 72 71 70 69 68 67 66
39 40 41 41 42 42 44 46 47 47 47 46 46 46 46 45 45 45 45 45 44 44 44 46 48 49 48 47 47 47 48 49 50 50 50 49 49 50 50 51 52 53 54 54 53 52 50 50 51 52 54 55 56 58 60 63 66 69 72 74 75 75 74 73 72 72 71 69 68 67 66 66 65 64
41 44 46 47 47 46 46 47 49 49 49 49 49 49 49 49 49 48 47 47 46 46 46 47 49 50 49 48 48 49 49 50 52 52 52 52 52 52 53 54 54 54 54 53 52 51 50 51 52 53 54 57 59 61 64 67 71 74 76 76 74 72 69 68 67 65 64 63 62 61 60 60 60 60
44 46 48 48 46 45 45 46 47 48 48 49 50 51 52 52 51 50 48 48 48 48 48 49 50 50 50 50 51 51 52 52 53 52 52 53 54 54 55 55 54 53 53 52 51 51 51 52 53 53 56 59 63 66 69 72 75 75 74 71 68 66 64 63 62 60 59 57 57 56 56 55 55 54
46 46 49 51 49 47 47 47 47 47 48 49 50 50 51 51 51 50 50 50 50 49 49 50 50 50 51 52 53 54 54 55 54 53 54 54 55 55 55 54 53 53 52 51 51 51 52 52 52 55 59 63 67 71 73 73 71 69 66 65 64 62 61 60 58 56 55 54 53 53 52 52 51 50
49 44 46 50 50 48 48 48 47 48 49 49 50 50 51 51 51 51 51 51 50 50 50 51 52 53 54 54 55 56 57 57 55 55 55 56 56 56 55 54 54 53 52 51 51 52 52 52 53 58 63 67 71 73 70 66 63 61 60 60 59 58 57 55 54 52 51 50 50 49 48 47 46 45
52 48 47 50 51 50 50 50 51 52 52 52 52 52 51 51 51 52 52 52 52 53 53 54 54 55 56 57 58 59 59 58 57 56 56 56 56 55 54 54 53 52 51 51 52 53 53 53 56 61 66 70 72 68 63 59 58 58 57 55 53 53 52 50 48 47 46 45 45 44 43 41 39 39
58 57 57 58 59 58 57 57 57 56 54 53 52 52 52 52 53 54 55 55 55 55 55 56 56 58 59 60 60 59 58 57 56 56 55 55 54 54 54 53 52 52 52 52 53 54 54 55 59 64 68 69 66 62 58 56 55 55 53 50 48 47 46 45 43 42 41 40 40 39 38 36 35 34
58 59 60 60 61 61 61 60 57 55 53 52 53 53 53 55 56 56 57 58 57 57 58 58 59 59 60 59 58 57 56 55 55 54 53 53 54 54 54 53 53 53 53 53 54 55 55 57 61 65 66 64 61 58 57 55 53 51 48 46 44 42 41 40 39 37 36 36 36 36 35 33 32 32
54 54 54 55 57 58 58 56 54 54 55 56 54 54 55 56 56 56 56 57 57 57 58 58 57 56 55 54 54 53 53 53 53 52 51 52 53 54 53 53 53 53 53 53 54 55 57 59 62 64 63 61 58 57 55 53 50 47 43 41 40 39 38 36 35 34 34 34 34 34 33 32 32 32
50 49 50 51 53 53 52 52 53 54 55 55 54 54 55 55 55 54 53 54 54 54 53 52 51 50 49 49 49 49 50 50 50 50 51 52 52 53 53 53 53 52 52 52 53 56 59 61 62 62 61 59 57 54 51 48 45 41 39 38 37 36 36 35 34 33 32 33 34 34 32 31 31 31
47 47 48 49 49 50 51 52 53 54 54 54 54 55 54 54 53 52 51 50 49 47 46 46 46 46 46 46 47 48 48 48 49 49 50 51 52 53 53 52 51 51 50 51 54 58 60 60 61 62 60 58 55 51 48 44 40 36 35 35 34 33 34 34 34 34 33 33 34 33 32 31 30 29
49 49 49 48 47 48 50 52 54 56 56 55 55 54 54 54 53 52 50 47 44 42 42 43 43 44 45 45 46 46 47 47 48 49 50 51 52 52 51 51 50 50 51 54 58 60 59 58 59 60 59 55 52 49 46 41 37 34 33 32 30 30 31 32 33 33 33 32 32 32 31 29 27 25
53 51 50 50 50 50 50 50 50 52 54 54 55 55 54 53 52 51 49 47 46 47 46 43 41 41 43 43 43 44 45 46 47 48 49 50 51 51 50 51 51 53 56 59 61 59 57 57 58 58 55 50 47 45 43 39 35 33 32 31 29 29 30 30 30 31 30 30 29 28 27 26 24 22
60 57 54 53 53 53 53 50 47 46 48 49 50 50 50 48 48 49 49 50 51 51 49 45 42 43 44 45 45 45 45 45 46 47 49 50 50 50 51 52 54 57 61 62 60 57 56 56 57 56 51 45 42 40 39 36 33 31 31 31 30 28 28 29 29 29 28 26 25 24 24 22 21 21
69 67 64 61 58 56 56 54 49 47 49 49 48 47 48 47 48 49 51 53 53 51 48 46 46 45 45 46 47 48 47 46 47 47 48 49 50 52 54 57 59 61 62 60 58 55 54 55 57 54 46 41 37 35 34 33 31 30 29 29 28 27 26 27 27 26 24 22 21 21 21 21 20 20
70 68 66 65 63 60 57 54 51 50 51 50 49 49 49 49 50 51 52 53 53 51 49 48 48 47 45 45 47 48 49 49 49 49 51 53 55 58 60 61 62 61 59 57 55 53 54 56 56 50 41 36 33 31 29 30 29 28 27 27 25 24 25 26 25 23 21 20 20 20 20 20 20 19
69 68 65 63 61 57 52 49 48 48 48 48 49 50 50 51 51 52 54 54 54 52 51 50 48 47 45 45 47 49 51 53 54 55 56 58 59 60 61 60 59 58 56 55 55 55 56 57 52 43 36 31 28 26 26 27 27 26 25 23 22 22 23 24 22 21 20 20 20 19 19 19 19 18
65 67 68 68 67 62 57 55 54 52 51 52 52 51 50 49 49 49 50 51 52 51 50 48 47 47 48 49 51 53 54 56 57 57 58 58 58 59 59 58 58 57 57 57 56 56 55 51 43 35 30 26 23 22 23 24 24 23 21 20 19 20 21 21 20 19 19 19 19 19 18 18 18 18
55 57 62 66 68 67 63 59 56 52 49 48 48 47 45 44 44 44 46 47 48 49 49 49 50 51 51 52 53 54 55 56 55 55 55 56 56 57 56 56 56 56 55 54 52 49 45 39 33 29 25 22 20 19 19 20 20 19 16 15 16 17 18 18 18 18 18 19 19 18 18 18 18 18
49 50 52 53 55 55 52 48 46 45 43 43 43 44 44 45 46 47 48 50 51 51 51 51 51 51 51 52 52 53 54 53 53 52 52 53 53 54 54 53 53 52 50 47 43 38 33 29 26 24 22 19 17 16 15 15 16 14 12 11 13 14 16 17 17 17 17 18 18 18 18 18 18 18
49 51 52 52 53 54 52 50 50 50 50 50 50 51 51 51 51 51 51 51 51 51 50 49 49 49 49 50 50 51 51 50 49 49 49 50 51 52 51 50 48 46 43 39 34 30 26 23 22 22 20 18 16 14 13 12 11 11 10 10 12 13 16 17 18 18 18 18 18 18 18 17 17 16
44 46 48 50 52 54 54 55 56 57 57 57 56 55 52 50 49 48 49 49 48 46 44 44 44 46 47 48 48 48 47 47 47 48 49 50 50 50 48 46 43 41 38 33 27 24 22 22 21 21 19 18 16 14 12 10 9 9 10 11 12 13 16 18 20 20 19 19 19 18 17 17 15 13
Wind_Direction
263 265 266 266 267 266 266 265 264 264 263 262 261 261 261 261 263 264 266 267 268 268 269 270 270 270 271 272 273 274 275 275 276 277 279 282 283 282 282 283 285 286 286 287 288 290 291 292 294 295 296 298 300 301 302 302 301 301 301 301 301 302 302 302 303 303 303 303 303 303 304 303 303 302
262 264 265 265 265 265 265 265 264 263 262 260 260 259 260 260 261 262 263 264 265 267 268 268 268 269 270 271 272 273 273 274 275 277 279 280 280 279 280 281 281 280 280 281 282 284 286 288 290 291 292 294 296 297 298 299 299 300 300 300 300 299 300 300 301 301 302 302 302 302 302 301 301 301
263 265 265 264 263 263 264 264 264 263 261 259 258 257 257 258 258 258 258 260 262 264 266 267 268 270 271 271 272 272 273 274 276 278 279 279 279 279 279 279 279 279 279 279 280 281 283 285 287 288 289 290 290 290 291 292 294 296 297 298 298 298 298 298 298 298 298 298 299 299 299 299 299 299
265 266 267 265 264 263 264 264 263 261 260 258 257 256 255 256 256 257 258 260 262 264 265 267 269 271 272 271 271 272 274 275 277 278 279 280 280 280 280 280 279 280 280 281 281 282 283 284 284 285 285 285 285 285 285 286 288 290 291 292 293 294 294 294 293 293 293 294 294 295 295 296 296 296
262 262 263 262 262 263 264 263 261 258 256 255 254 253 252 253 254 256 258 261 263 264 265 267 269 270 270 270 271 272 274 275 276 278 279 280 280 281 281 281 281 282 283 284 285 285 284 283 281 280 280 280 281 282 282 283 284 285 287 288 289 289 288 287 286 286 286 286 287 287 288 288 289 290
255 255 255 254 254 256 258 259 257 254 251 251 252 252 252 253 254 255 258 260 261 263 263 265 267 267 267 268 269 271 272 272 274 275 277 278 279 281 282 283 285 286 287 287 287 285 284 282 280 279 279 280 281 282 283 284 285 285 286 286 286 287 286 286 286 285 285 284 284 284 284 285 285 285
252 252 251 249 247 246 248 249 249 247 246 246 246 246 248 250 252 253 256 258 260 261 262 262 263 263 265 266 268 269 269 269 269 270 272 273 276 279 282 283 283 284 285 286 285 284 282 282 281 281 280 280 280 281 281 282 283 284 285 286 287 289 289 290 291 291 290 289 289 288 288 287 287 286
250 249 248 247 245 243 242 241 241 241 242 243 244 245 245 246 248 250 253 256 258 259 261 261 261 261 262 263 264 265 266 267 267 268 270 273 276 279 280 280 280 280 281 282 282 282 282 282 282 282 281 280 279 279 280 281 282 284 287 289 291 292 293 293 293 293 293 292 291 290 290 289 289 288
247 246 246 245 243 241 239 237 236 236 239 242 245 247 248 249 250 251 253 255 256 258 259 260 261 262 264 264 265 265 265 266 268 269 270 272 274 276 277 278 278 278 277 278 279 280 280 281 281 281 280 280 281 283 284 285 287 288 290 291 292 293 293 293 293 293 293 292 291 291 290 289 289 288
242 242 243 244 243 241 239 236 234 235 238 242 247 250 254 256 257 257 258 258 259 260 261 262 263 265 267 268 269 269 268 267 267 268 268 269 271 273 274 276 277 277 276 276 276 277 279 281 282 283 284 284 285 287 289 290 291 291 292 292 293 293 292 292 292 292 291 291 291 291 290 290 289 289
241 239 240 242 244 243 240 238 236 236 238 242 247 252 256 258 260 261 263 264 265 265 266 266 266 267 267 268 268 269 268 267 267 266 266 267 268 269 270 271 273 274 274 275 275 277 280 283 285 286 287 287 288 289 290 291 292 292 292 292 292 292 291 291 291 290 290 289 289 289 288 288 288 288
243 241 239 239 241 242 241 239 238 238 239 242 246 250 253 256 259 261 263 265 265 266 266 266 267 268 268 268 268 268 268 268 267 267 267 267 267 267 268 269 270 271 272 274 276 279 281 283 284 285 285 286 286 287 288 288 289 290 290 290 290 289 289 289 289 288 288 288 287 287 286 286 286 285
244 243 241 239 238 239 239 239 239 240 241 243 246 248 251 254 256 258 260 260 261 262 264 265 267 268 269 269 269 269 268 268 268 268 268 269 269 270 271 273 274 274 276 279 281 283 284 285 285 285 285 286 286 286 287 287 288 288 288 288 288 288 287 287 286 286 285 285 285 285 285 285 285 285
246 246 245 241 236 234 236 239 241 242 243 246 249 250 251 253 255 256 257 258 259 261 263 265 266 267 268 269 269 269 269 268 269 269 270 272 273 275 277 278 280 280 281 283 285 287 287 288 288 287 287 287 287 287 288 288 288 288 288 288 287 287 287 286 286 285 284 284 283 283 283 283 284 284
247 248 248 245 242 239 238 240 243 247 252 255 256 255 254 254 256 258 259 259 260 261 262 262 263 265 266 267 267 267 268 268 270 272 274 275 277 279 280 282 283 283 285 286 288 289 289 289 289 289 288 289 289 288 288 288 288 288 287 286 286 286 285 285 285 285 284 284 283 283 282 282 282 283
246 246 246 246 247 246 244 242 244 250 256 260 262 261 260 261 261 263 264 264 264 264 264 264 264 264 265 265 266 267 268 269 271 273 275 277 279 280 282 283 285 286 287 288 290 290 290 290 289 288 288 288 288 288 287 287 287 287 286 286 285 285 285 284 284 284 284 284 284 284 284 283 283 283
246 244 243 242 242 243 243 243 244 248 252 258 261 264 265 265 265 267 269 270 269 269 269 268 267 266 266 267 268 269 271 272 274 276 278 279 281 282 284 285 287 288 290 291 291 290 290 289 288 288 288 288 288 288 288 288 288 288 287 286 286 285 285 284 284 284 284 284 284 284 285 284 284 284
248 247 246 244 243 243 243 244 246 249 252 255 258 264 269 270 268 270 272 273 273 272 271 270 270 269 269 269 270 271 272 273 275 277 278 280 281 283 285 286 288 289 291 292 292 291 290 289 289 290 290 290 290 290 290 290 289 289 288 287 286 286 285 285 285 285 285 285 285 285 285 284 284 284
251 251 251 251 250 250 250 251 253 254 256 256 257 260 264 265 266 269 271 272 272 271 271 271 271 272 272 272 272 273 274 274 276 277 278 279 281 282 284 285 287 289 290 291 291 291 291 291 291 291 292 292 292 292 292 291 291 290 289 288 287 287 287 287 287 287 286 286 286 285 284 284 283 283
253 254 255 256 257 257 257 257 258 258 259 260 259 257 254 254 260 266 269 270 270 271 271 272 273 273 274 275 275 275 276 277 277 278 279 279 281 282 283 284 285 287 289 291 292 293 293 292 292 292 292 292 293 292 292 292 292 291 291 290 290 289 289 289 288 288 287 287 286 286 285 284 283 282
254 255 256 257 257 258 259 260 262 262 262 262 262 260 256 255 259 264 268 269 270 271 273 274 275 276 276 276 276 277 278 279 279 279 279 281 282 283 284 284 286 287 289 292 293 294 294 293 293 293 293 293 293 292 292 292 292 292 292 292 292 291 291 290 290 289 288 287 287 286 286 285 284 283
256 258 259 260 260 259 260 263 266 266 264 264 264 262 260 259 262 266 269 270 271 272 274 276 277 277 277 277 277 278 280 281 281 281 281 282 282 283 284 285 287 288 291 293 295 295 295 294 295 295 294 294 293 292 293 293 294 294 294 294 293 293 292 292 291 290 289 289 288 288 287 285 284 282
260 263 265 266 265 264 266 269 272 272 270 268 266 264 263 263 265 267 269 270 271 273 275 277 277 277 276 276 277 279 281 283 284 284 282 282 283 284 286 288 289 291 293 295 295 296 296 295 296 296 296 295 295 294 295 295 295 295 295 295 296 296 295 294 294 293 292 291 290 288 287 285 284 282
267 269 270 270 270 270 270 272 274 275 274 272 269 266 265 265 267 268 269 269 270 271 274 276 276 275 274 275 276 278 281 283 285 284 283 283 284 285 287 289 291 293 294 295 295 295 296 295 296 296 297 298 299 298 299 299 298 298 298 298 299 298 297 296 295 293 292 291 290 288 286 284 282 281
273 274 274 273 272 272 271 272 273 273 272 271 268 267 267 267 267 268 268 269 270 271 273 274 274 273 273 274 276 278 279 281 282 282 282 284 285 287 288 290 292 293 294 294 294 295 295 296 297 298 300 301 302 302 302 302 301 300 300 300 300 298 297 296 295 294 293 291 290 288 286 284 282 281
275 275 275 274 272 272 271 271 272 272 271 269 267 266 266 266 266 266 267 268 268 269 271 271 271 271 272 274 276 278 279 280 280 281 283 284 286 288 289 291 292 292 293 293 294 295 297 298 299 300 301 302 303 304 304 303 301 301 300 300 299 297 296 295 295 294 293 292 290 289 287 286 285 284
270 271 272 271 270 270 270 271 271 272 271 268 266 265 265 265 266 266 266 267 267 268 269 270 270 271 273 274 275 277 278 279 281 282 284 285 287 288 290 291 291 292 292 293 295 296 298 299 299 301 302 303 305 305 304 302 300 300 299 298 297 296 296 295 295 295 294 293 291 290 289 289 288 287
266 265 265 266 267 267 268 269 270 270 270 269 266 265 265 265 266 266 267 267 269 270 271 271 272 272 273 274 275 277 278 280 281 283 284 286 287 289 290 291 291 292 293 294 295 297 298 298 299 301 303 305 306 306 304 302 300 300 299 298 297 297 297 297 296 296 295 294 293 292 291 290 290 288
264 261 260 262 264 265 266 268 270 271 270 268 266 265 266 266 267 268 269 270 272 272 272 272 272 271 271 273 275 277 278 280 281 282 283 285 286 288 288 289 290 291 292 293 295 297 297 297 298 301 304 306 307 305 303 302 301 300 299 299 298 298 298 298 297 297 297 296 295 294 293 292 291 290
264 263 262 263 264 265 267 270 271 270 268 269 270 271 271 270 270 270 271 271 271 270 269 268 268 269 270 272 275 276 278 279 280 280 282 283 284 286 287 287 288 289 290 292 294 295 296 296 299 302 305 307 306 305 304 303 302 302 302 301 300 299 298 298 299 299 299 297 296 295 295 294 293 291
266 265 265 265 266 266 267 268 267 268 270 274 275 274 272 271 270 271 271 271 270 268 267 267 268 270 271 273 275 276 276 277 277 279 280 281 283 284 284 285 286 288 289 291 293 294 295 296 300 304 306 307 306 305 304 304 304 304 303 302 301 300 299 300 300 300 299 297 296 295 296 296 295 293
266 265 265 266 265 264 264 265 268 271 275 276 274 272 270 270 270 271 271 271 270 269 269 269 270 271 272 273 274 274 274 275 276 277 279 280 281 282 282 283 284 286 288 291 293 294 295 298 302 305 307 307 306 305 304 304 305 305 304 302 301 301 301 301 300 299 298 298 297 297 297 297 295 294
264 264 264 263 262 262 264 267 270 271 271 269 267 265 265 266 267 267 268 268 269 269 269 270 271 272 272 271 271 271 272 274 275 277 278 279 279 279 280 282 283 285 288 290 293 296 299 301 304 306 307 307 306 304 303 304 305 304 303 301 301 302 303 302 301 301 300 299 298 298 298 297 296 295
260 261 262 262 263 265 268 269 269 266 263 260 258 258 261 263 264 264 266 268 269 270 270 269 270 269 268 268 269 270 272 274 274 275 276 276 277 278 280 281 283 286 288 290 295 300 301 301 304 307 308 307 305 303 302 304 303 301 300 300 300 301 301 300 301 302 301 300 299 298 298 298 297 297
253 257 259 260 262 266 268 269 268 264 261 258 256 256 259 262 263 266 271 271 268 267 268 267 266 265 265 265 267 269 271 272 272 272 273 274 276 277 278 280 283 286 289 293 298 301 300 300 304 308 308 306 304 302 303 304 303 300 300 300 300 300 299 298 299 300 300 300 299 299 299 299 300 301
251 254 258 259 260 262 265 267 267 264 261 259 259 260 262 264 265 269 271 268 264 263 264 262 262 264 265 266 267 268 269 269 269 270 271 273 275 277 278 281 283 286 291 296 300 301 299 299 304 308 306 303 301 302 303 304 303 302 302 304 304 303 301 300 300 300 301 301 302 302 303 304 305 305
254 255 258 260 261 261 261 261 263 263 261 259 259 260 262 263 264 265 264 262 261 262 261 259 261 264 266 267 268 268 267 267 268 269 271 273 275 278 280 283 286 290 294 297 299 299 297 299 304 306 302 297 297 300 301 301 301 302 304 305 305 304 303 303 303 303 304 305 306 306 307 307 307 306
256 258 260 261 260 260 259 256 255 257 260 260 258 256 256 257 259 260 260 260 260 261 261 263 265 267 266 265 265 266 265 265 266 268 271 274 278 280 283 286 289 293 296 297 297 297 297 300 304 304 297 293 295 297 297 299 301 303 303 303 304 304 304 305 306 307 308 309 309 308 308 307 307 306
253 255 258 258 257 258 261 260 256 255 258 259 258 257 257 258 260 261 261 260 260 262 265 269 271 272 270 265 262 263 265 266 267 270 274 278 282 285 288 290 293 296 297 297 297 297 297 300 303 299 291 289 292 293 294 298 301 302 302 302 303 305 306 308 310 313 314 312 310 309 307 307 307 306
251 251 253 254 255 256 258 258 256 254 254 254 255 256 258 259 260 262 262 262 263 266 269 272 273 274 272 268 266 266 269 272 275 278 282 285 288 290 292 294 296 297 297 296 296 296 297 299 298 292 285 286 288 290 294 299 301 303 303 302 303 307 311 313 316 317 314 311 308 307 307 308 307 307
254 253 252 252 254 256 257 257 258 259 259 259 258 258 259 260 262 262 263 264 266 269 271 273 275 276 276 275 275 275 277 280 284 287 289 291 292 294 295 296 297 297 297 297 296 296 296 294 289 283 280 281 283 288 296 301 304 307 306 305 308 313 316 318 318 315 312 310 307 307 309 310 309 307
253 255 255 254 255 258 260 261 262 261 260 257 255 255 257 260 262 264 266 268 271 274 276 280 283 284 284 284 284 285 286 288 290 291 292 293 295 297 298 298 298 298 298 296 295 293 290 285 279 275 274 274 277 286 298 305 310 311 311 313 320 324 326 325 323 318 314 312 309 308 309 309 308 307
250 250 251 252 252 253 253 253 253 253 252 252 255 260 264 267 270 273 275 277 279 281 283 285 286 285 286 287 288 289 289 289 289 291 293 295 297 298 299 298 298 297 295 293 290 286 281 274 269 267 266 265 270 282 296 308 314 315 319 329 336 340 342 341 338 332 325 318 314 312 311 309 307 305
250 249 249 250 251 252 251 251 253 255 257 259 264 269 273 275 277 278 279 279 280 282 282 282 282 283 284 285 285 285 285 287 289 292 294 296 297 297 296 296 294 292 290 288 284 278 270 264 260 259 258 258 264 275 289 303 313 319 331 343 348 350 354 355 353 348 339 328 321 317 314 310 307 305
251 251 252 253 255 256 257 258 259 261 263 266 268 272 274 275 275 275 275 276 277 277 276 276 277 278 279 280 281 283 285 288 291 293 294 295 294 293 292 290 288 286 286 283 276 267 260 257 255 252 251 253 258 266 277 291 305 320 335 346 350 353 356 359 359 357 349 337 329 324 321 317 315 314